Noatak, AK

11:13 AM AKDT on September 25, 2017 (GMT -0800)
Noatak

Weather History for PAWN - August, 2013

Change the Weather History Date:

Tuesday, August 6, 2013

  Actual Average Record
Temperature  
Mean Temperature 58 °F -  
Max Temperature 62 °F 54 °F 80 °F (2007)
Min Temperature 53 °F 41 °F 30 °F (2002)
Degree Days  
Heating Degree Days 8    
Growing Degree Days 8 (Base 50)    
Moisture  
Dew Point 51 °F    
Average Humidity 79    
Maximum Humidity 94    
Minimum Humidity 63    
Precipitation  
Precipitation 0.04 in - - ()
Sea Level Pressure  
Sea Level Pressure 29.89 in    
Wind  
Wind Speed 6 mph (ENE)    
Max Wind Speed 12 mph    
Max Gust Speed -    
Visibility 10 miles    
Events      
Averages and records for this station are not official NWS values.
T = Trace of Precipitation, MM = Missing Value Source: NWS Daily Summary

Daily Weather History Graph

Daily Weather History Graph

Search for Another Location

Airport or City:

Trip Planner

Search our weather history database for the weather conditions in past years. The results will help you decide how hot, cold, wet, or windy it might be!

Date:

Astronomy

Aug. 06, 2013 Rise Set
Actual Time 5:40 AM AKDT 12:11 AM AKDT
Civil Twilight 3:30 AM AKDT 2:31 AM AKDT
Nautical Twilight Sun does not set Sun does not set
Astronomical Twilight Sun does not set Sun does not set
Moon 6:26 AM AKDT (8/6) 10:51 PM AKDT (8/6)
Length of Visible Light 23h 01m
Length of Day
18h 31m
Waning Crescent, 0% of the Moon is Illuminated
Aug 6
Waning Crescent
Aug 6
New
Aug 14
First Quarter
Aug 20
Full
Aug 28
Last Quarter

Hourly Weather History & Observations

Time (AKDT) Temp. Dew Point Humidity Pressure Visibility Wind Dir Wind Speed Gust Speed Precip Events Conditions
12:16 AM 55.4 °F 48.2 °F 77% 29.87 in 10.0 mi NNE 4.6 mph - N/A   Overcast
12:36 AM 55.4 °F 48.2 °F 77% 29.87 in 10.0 mi NE 5.8 mph - N/A   Overcast
12:56 AM 55.4 °F 48.2 °F 77% 29.87 in 10.0 mi NE 4.6 mph - N/A   Overcast
1:16 AM 55.4 °F 48.2 °F 77% 29.87 in 10.0 mi NNE 4.6 mph - N/A   Overcast
1:36 AM 55.4 °F 48.2 °F 77% 29.88 in 10.0 mi NNE 3.5 mph - N/A   Overcast
1:56 AM 55.4 °F 48.2 °F 77% 29.88 in 10.0 mi North 3.5 mph - N/A   Overcast
2:16 AM 55.4 °F 48.2 °F 77% 29.88 in 10.0 mi NNE 3.5 mph - N/A   Overcast
2:36 AM 53.6 °F 50.0 °F 88% 29.88 in 10.0 mi North 4.6 mph - N/A   Overcast
2:56 AM 53.6 °F 50.0 °F 88% 29.89 in 9.0 mi NNE 3.5 mph - N/A   Overcast
3:16 AM 53.6 °F 50.0 °F 88% 29.89 in 10.0 mi NNE 3.5 mph - N/A   Overcast
3:36 AM 53.6 °F 50.0 °F 88% 29.89 in 10.0 mi North 5.8 mph - N/A   Overcast
3:56 AM 53.6 °F 50.0 °F 88% 29.88 in 10.0 mi North 4.6 mph - N/A   Overcast
4:16 AM 53.6 °F 50.0 °F 88% 29.88 in 10.0 mi North 5.8 mph - N/A   Overcast
4:36 AM 53.6 °F 50.0 °F 88% 29.88 in 7.0 mi North 3.5 mph - 0.03 in   Overcast
4:56 AM 53.6 °F 50.0 °F 88% 29.89 in 10.0 mi North 4.6 mph - 0.04 in   Overcast
5:16 AM 53.6 °F 50.0 °F 88% 29.89 in 10.0 mi Calm Calm - N/A   Overcast
5:36 AM 53.6 °F 51.8 °F 94% 29.89 in 10.0 mi NE 3.5 mph - N/A   Overcast
5:56 AM 53.6 °F 50.0 °F 88% 29.89 in 10.0 mi ENE 5.8 mph - N/A   Overcast
6:16 AM 53.6 °F 50.0 °F 88% 29.89 in 10.0 mi East 5.8 mph - N/A   Overcast
6:36 AM 53.6 °F 50.0 °F 88% 29.89 in 10.0 mi ESE 8.1 mph - N/A   Mostly Cloudy
6:56 AM 55.4 °F 50.0 °F 82% 29.89 in 10.0 mi ESE 9.2 mph - N/A   Overcast
7:16 AM 55.4 °F 50.0 °F 82% 29.89 in 10.0 mi ESE 9.2 mph - N/A   Overcast
7:36 AM 55.4 °F 50.0 °F 82% 29.89 in 10.0 mi ESE 8.1 mph - N/A   Overcast
7:56 AM 55.4 °F 50.0 °F 82% 29.90 in 10.0 mi ESE 9.2 mph - N/A   Overcast
8:16 AM 55.4 °F 50.0 °F 82% 29.90 in 10.0 mi ESE 10.4 mph - N/A   Overcast
8:36 AM 55.4 °F 50.0 °F 82% 29.90 in 10.0 mi ESE 10.4 mph - N/A   Overcast
8:56 AM 55.4 °F 50.0 °F 82% 29.91 in 10.0 mi ESE 11.5 mph - N/A   Mostly Cloudy
9:16 AM 55.4 °F 51.8 °F 88% 29.91 in 10.0 mi ESE 11.5 mph - N/A   Overcast
9:36 AM 55.4 °F 51.8 °F 88% 29.92 in 10.0 mi ESE 8.1 mph - N/A   Overcast
9:56 AM 55.4 °F 51.8 °F 88% 29.92 in 10.0 mi ESE 6.9 mph - N/A   Overcast
10:16 AM 55.4 °F 51.8 °F 88% 29.92 in 10.0 mi ESE 8.1 mph - N/A   Overcast
10:36 AM 55.4 °F 51.8 °F 88% 29.92 in 10.0 mi ESE 5.8 mph - N/A   Overcast
10:56 AM 55.4 °F 51.8 °F 88% 29.92 in 10.0 mi ESE 4.6 mph - N/A   Overcast
11:16 AM 55.4 °F 51.8 °F 88% 29.92 in 10.0 mi ESE 5.8 mph - N/A   Overcast
11:36 AM 55.4 °F 51.8 °F 88% 29.92 in 10.0 mi ESE 8.1 mph - N/A   Overcast
11:56 AM 55.4 °F 51.8 °F 88% 29.92 in 10.0 mi ESE 8.1 mph - N/A   Overcast
12:16 PM 57.2 °F 51.8 °F 82% 29.92 in 10.0 mi ESE 11.5 mph - N/A   Overcast
12:36 PM 57.2 °F 51.8 °F 82% 29.92 in 10.0 mi ESE 10.4 mph - N/A   Overcast
12:56 PM 57.2 °F 51.8 °F 82% 29.92 in 10.0 mi ESE 10.4 mph - N/A   Overcast
1:16 PM 59.0 °F 51.8 °F 77% 29.92 in 10.0 mi ESE 8.1 mph - N/A   Overcast
1:36 PM 59.0 °F 51.8 °F 77% 29.92 in 10.0 mi East 6.9 mph - N/A   Mostly Cloudy
1:56 PM 59.0 °F 51.8 °F 77% 29.92 in 10.0 mi ESE 11.5 mph - N/A   Mostly Cloudy
2:16 PM 59.0 °F 51.8 °F 77% 29.91 in 10.0 mi Calm Calm - N/A   Mostly Cloudy
2:36 PM 60.8 °F 51.8 °F 72% 29.91 in 10.0 mi ESE 9.2 mph - N/A   Overcast
2:56 PM 60.8 °F 51.8 °F 72% 29.91 in 10.0 mi ESE 9.2 mph - N/A   Mostly Cloudy
3:16 PM 62.6 °F 51.8 °F 68% 29.91 in 10.0 mi ESE 11.5 mph - N/A   Mostly Cloudy
3:36 PM 62.6 °F 51.8 °F 68% 29.91 in 10.0 mi SE 8.1 mph - N/A   Mostly Cloudy
3:56 PM 62.6 °F 51.8 °F 68% 29.90 in 10.0 mi Calm Calm - N/A   Mostly Cloudy
4:16 PM 62.6 °F 51.8 °F 68% 29.90 in 10.0 mi SE 9.2 mph - N/A   Mostly Cloudy
4:36 PM 62.6 °F 50.0 °F 63% 29.90 in 10.0 mi SE 9.2 mph - N/A   Mostly Cloudy
4:56 PM 62.6 °F 51.8 °F 68% 29.90 in 10.0 mi ESE 5.8 mph - N/A   Mostly Cloudy
5:16 PM 62.6 °F 50.0 °F 63% 29.89 in 10.0 mi SE 8.1 mph - N/A   Overcast
5:36 PM 62.6 °F 51.8 °F 68% 29.90 in 10.0 mi SE 8.1 mph - N/A   Mostly Cloudy
5:56 PM 62.6 °F 51.8 °F 68% 29.90 in 10.0 mi ESE 6.9 mph - N/A   Overcast
6:16 PM 62.6 °F 51.8 °F 68% 29.89 in 10.0 mi East 5.8 mph - N/A   Overcast
6:36 PM 62.6 °F 51.8 °F 68% 29.89 in 10.0 mi East 5.8 mph - N/A   Overcast
6:56 PM 62.6 °F 51.8 °F 68% 29.89 in 10.0 mi East 5.8 mph - N/A   Mostly Cloudy
7:16 PM 62.6 °F 51.8 °F 68% 29.89 in 10.0 mi ENE 6.9 mph - N/A   Mostly Cloudy
7:36 PM 60.8 °F 51.8 °F 72% 29.89 in 10.0 mi NE 6.9 mph - N/A   Mostly Cloudy
7:56 PM 60.8 °F 53.6 °F 77% 29.89 in 10.0 mi NNE 4.6 mph - N/A   Overcast
8:16 PM 60.8 °F 53.6 °F 77% 29.89 in 10.0 mi NNE 3.5 mph - N/A   Overcast
8:36 PM 60.8 °F 53.6 °F 77% 29.88 in 10.0 mi North 4.6 mph - N/A   Mostly Cloudy
8:56 PM 60.8 °F 53.6 °F 77% 29.88 in 10.0 mi NNE 4.6 mph - N/A   Overcast
9:16 PM 60.8 °F 53.6 °F 77% 29.88 in 10.0 mi North 4.6 mph - N/A   Overcast
9:36 PM 60.8 °F 53.6 °F 77% 29.88 in 10.0 mi North 4.6 mph - N/A   Mostly Cloudy
9:56 PM 60.8 °F 53.6 °F 77% 29.88 in 10.0 mi NNE 4.6 mph - N/A   Overcast
10:16 PM 60.8 °F 53.6 °F 77% 29.87 in 10.0 mi North 4.6 mph - N/A   Overcast
10:36 PM 60.8 °F 51.8 °F 72% 29.87 in 10.0 mi NNE 3.5 mph - N/A   Overcast
10:56 PM 59.0 °F 51.8 °F 77% 29.87 in 10.0 mi NNE 5.8 mph - N/A   Overcast
11:16 PM 59.0 °F 53.6 °F 82% 29.87 in 10.0 mi NNW 4.6 mph - N/A   Overcast
11:36 PM 57.2 °F 53.6 °F 88% 29.87 in 10.0 mi NNW 4.6 mph - N/A   Overcast
11:56 PM 57.2 °F 53.6 °F 88% 29.87 in 10.0 mi North 4.6 mph - N/A   Overcast